Molniya-1T

operational
NORAD ID: 24960 Int'l Des: 1997-054 Owner: VKSR Country: RU
MEOELLIPTICALHEO_ELLIPTICALMOLNIYA_TYPE

Über Molniya-1T

Beschreibung wird geladen...

Live-Position

3D-Globus wird geladen...

Nächste Überflüge

Höhenverlauf

Altitude vs Time

uPlot chart will show altitude changes over time

Zweizeiliger Elementsatz

1 24960U 97054A 26062.65277101 .00000018 00000-0 -27022-2 0 9996
2 24960 64.3961 224.7200 5913851 282.1869 20.6958 3.18687736251194
Epoch: 3. März 2026 • Age: 32 hours

Aktueller Status

Höhe 14726.4 km
Geschwindigkeit 4.17 km/s
Subsatellitenpunkt 47.33°N, 20.83°W
Startdatum 24. Sept. 1997
Alter 28.4 years
Typ other

Technische Details

Klassifizierung Payload
Masse 1670.00 kg
Trockenmasse 1620.00 kg
Gesamtmasse 1670.00 kg
Länge 4.40 m
Durchmesser 1.40 m
Spannweite 8.60 m
Form Cyl + 6 Pan
Hersteller NPOPMR
Bus-Typ Molniya-1T
Phasenstatus In Orbit
Besitzer/Staat VKSR/RU

Große Konstellationen

Loading constellations...